| time (UTC) | temp F | wind direction | speed MPH | gust MPH | rain 1hr in | rain 24hr in | rain mn in | humidity % | barometer mb |
| 20260904174213 | 75 | 264 | 5.0 | 6.0 | 0.00 | 0.33 | 0.33 | 65 | 1014.7 |
| 20260904173708 | 75 | 297 | 4.0 | 6.0 | 0.00 | 0.33 | 0.33 | 66 | 1014.9 |
| 20260904173203 | 74 | 44 | 6.0 | 7.0 | 0.00 | 0.33 | 0.33 | 66 | 1014.7 |
| 20260904172659 | 73 | 356 | 2.0 | 3.0 | 0.00 | 0.33 | 0.33 | 69 | 1014.8 |
| 20260904172158 | 74 | 70 | 4.0 | 6.0 | 0.00 | 0.33 | 0.33 | 65 | 1015.0 |
| 20260904171654 | 75 | 274 | 2.0 | 3.0 | 0.00 | 0.33 | 0.33 | 65 | 1014.9 |
| 20260904171154 | 73 | 298 | 2.0 | 3.0 | 0.00 | 0.33 | 0.33 | 70 | 1014.7 |
| 20260904170651 | 74 | 22 | 6.0 | 7.0 | 0.00 | 0.33 | 0.33 | 68 | 1014.8 |
| 20260904170146 | 74 | 275 | 3.0 | 3.0 | 0.00 | 0.33 | 0.33 | 67 | 1014.9 |
| 20260904165644 | 73 | 282 | 4.0 | 4.0 | 0.00 | 0.33 | 0.33 | 70 | 1014.9 |
| 20260904165144 | 73 | 295 | 6.0 | 10.0 | 0.00 | 0.33 | 0.33 | 69 | 1014.9 |
| 20260904164639 | 74 | 312 | 7.0 | 8.0 | 0.00 | 0.33 | 0.33 | 67 | 1014.8 |
| 20260904164135 | 72 | 286 | 4.0 | 4.0 | 0.00 | 0.33 | 0.33 | 72 | 1015.0 |
| 20260904163630 | 73 | 289 | 5.0 | 6.0 | 0.00 | 0.33 | 0.33 | 72 | 1014.9 |
| 20260904163126 | 73 | 339 | 2.0 | 3.0 | 0.00 | 0.33 | 0.33 | 70 | 1014.6 |
| 20260904162626 | 74 | 27 | 2.0 | 3.0 | 0.00 | 0.33 | 0.33 | 69 | 1014.7 |
| 20260904162126 | 74 | 272 | 5.0 | 7.0 | 0.00 | 0.33 | 0.33 | 68 | 1014.8 |
| 20260904161621 | 73 | 15 | 3.0 | 4.0 | 0.00 | 0.33 | 0.33 | 71 | 1014.9 |
| 20260904161116 | 74 | 11 | 6.0 | 8.0 | 0.00 | 0.33 | 0.33 | 68 | 1014.8 |
| 20260904160612 | 73 | 340 | 5.0 | 9.0 | 0.00 | 0.33 | 0.33 | 73 | 1014.9 |
| 20260904160108 | 73 | 316 | 3.0 | 3.0 | 0.00 | 0.33 | 0.33 | 73 | 1014.7 |
| 20260904155602 | 73 | 307 | 3.0 | 3.0 | 0.00 | 0.33 | 0.33 | 74 | 1014.9 |
| 20260904155056 | 73 | 12 | 2.0 | 3.0 | 0.00 | 0.33 | 0.33 | 76 | 1014.7 |
| 20260904154550 | 72 | 47 | 2.0 | 3.0 | 0.00 | 0.33 | 0.33 | 73 | 1014.8 |
| 20260904154044 | 71 | 285 | 2.0 | 3.0 | 0.00 | 0.33 | 0.33 | 78 | 1014.7 |
| 20260904153543 | 71 | 31 | 2.0 | 3.0 | 0.00 | 0.33 | 0.33 | 77 | 1014.9 |
| 20260904153040 | 71 | 325 | 5.0 | 7.0 | 0.00 | 0.33 | 0.33 | 77 | 1015.0 |
| 20260904152536 | 72 | 309 | 4.0 | 6.0 | 0.00 | 0.33 | 0.33 | 76 | 1015.1 |
| 20260904152031 | 71 | 17 | 2.0 | 3.0 | 0.00 | 0.33 | 0.33 | 79 | 1015.1 |
| 20260904151527 | 70 | 303 | 3.0 | 4.0 | 0.00 | 0.33 | 0.33 | 80 | 1015.1 |
| 20260904151026 | 70 | 291 | 6.0 | 7.0 | 0.00 | 0.33 | 0.33 | 80 | 1015.1 |
| 20260904150521 | 70 | 303 | 5.0 | 6.0 | 0.00 | 0.33 | 0.33 | 79 | 1015.0 |
| 20260904150021 | 70 | 258 | 2.0 | 3.0 | 0.00 | 0.33 | 0.33 | 80 | 1015.1 |
| 20260904145515 | 70 | 324 | 4.0 | 4.0 | 0.00 | 0.33 | 0.33 | 82 | 1014.9 |
| 20260904145010 | 70 | 295 | 3.0 | 4.0 | 0.00 | 0.33 | 0.33 | 81 | 1014.9 |
| 20260904144506 | 70 | 273 | 3.0 | 3.0 | 0.00 | 0.33 | 0.33 | 81 | 1015.1 |
| 20260904144002 | 70 | 359 | 2.0 | 3.0 | 0.00 | 0.33 | 0.33 | 83 | 1014.9 |
| 20260904143457 | 69 | 37 | 2.0 | 2.0 | 0.00 | 0.33 | 0.33 | 83 | 1015.1 |
| 20260904142954 | 69 | 357 | 3.0 | 3.0 | 0.00 | 0.33 | 0.33 | 82 | 1015.0 |
| 20260904142450 | 70 | 313 | 3.0 | 4.0 | 0.00 | 0.33 | 0.33 | 81 | 1015.0 |
| 20260904141950 | 70 | 83 | 2.0 | 2.0 | 0.00 | 0.33 | 0.33 | 84 | 1014.9 |
| 20260904141445 | 69 | 49 | 2.0 | 3.0 | 0.00 | 0.33 | 0.33 | 83 | 1015.0 |
| 20260904140941 | 68 | 341 | 2.0 | 3.0 | 0.00 | 0.33 | 0.33 | 86 | 1015.1 |
| 20260904140441 | 68 | 27 | 2.0 | 4.0 | 0.00 | 0.33 | 0.33 | 86 | 1015.4 |
| 20260904135940 | 67 | 14 | 2.0 | 3.0 | 0.00 | 0.33 | 0.33 | 86 | 1015.3 |
| 20260904135440 | 68 | 342 | 4.0 | 6.0 | 0.00 | 0.33 | 0.33 | 85 | 1015.2 |
| 20260904134936 | 69 | 261 | 4.0 | 7.0 | 0.00 | 0.33 | 0.33 | 85 | 1015.0 |
| 20260904134436 | 69 | 295 | 5.0 | 7.0 | 0.00 | 0.33 | 0.33 | 85 | 1015.1 |
| 20260904133931 | 69 | 9 | 4.0 | 6.0 | 0.00 | 0.33 | 0.33 | 85 | 1015.0 |
| 20260904133426 | 68 | 359 | 3.0 | 3.0 | 0.00 | 0.33 | 0.33 | 86 | 1015.2 |
| 20260904132921 | 68 | 325 | 4.0 | 4.0 | 0.00 | 0.33 | 0.33 | 86 | 1015.0 |
| 20260904132416 | 67 | 283 | 4.0 | 6.0 | 0.00 | 0.33 | 0.33 | 88 | 1014.8 |
| 20260904131916 | 67 | 279 | 4.0 | 4.0 | 0.00 | 0.33 | 0.33 | 89 | 1014.9 |
| 20260904131411 | 66 | 31 | 2.0 | 3.0 | 0.00 | 0.33 | 0.33 | 91 | 1014.9 |
| 20260904130907 | 66 | 236 | 2.0 | 3.0 | 0.00 | 0.33 | 0.33 | 89 | 1014.8 |
| 20260904130406 | 66 | 334 | 2.0 | 2.0 | 0.00 | 0.33 | 0.33 | 89 | 1015.1 |
| 20260904125901 | 66 | 332 | 4.0 | 4.0 | 0.00 | 0.33 | 0.33 | 89 | 1015.0 |
| 20260904125357 | 66 | 346 | 4.0 | 6.0 | 0.00 | 0.33 | 0.33 | 90 | 1014.9 |
| 20260904124856 | 66 | 294 | 6.0 | 7.0 | 0.00 | 0.33 | 0.33 | 89 | 1015.0 |
| 20260904124353 | 66 | 332 | 5.0 | 7.0 | 0.00 | 0.33 | 0.33 | 91 | 1015.0 |
| 20260904123848 | 66 | 296 | 2.0 | 2.0 | 0.00 | 0.33 | 0.33 | 91 | 1015.0 |
| 20260904123343 | 66 | 290 | 3.0 | 4.0 | 0.00 | 0.33 | 0.33 | 91 | 1014.7 |
| 20260904122838 | 66 | 311 | 3.0 | 4.0 | 0.00 | 0.33 | 0.33 | 91 | 1015.0 |
| 20260904122333 | 66 | 295 | 4.0 | 4.0 | 0.00 | 0.33 | 0.33 | 91 | 1015.2 |
| 20260904121828 | 66 | 330 | 2.0 | 2.0 | 0.00 | 0.33 | 0.33 | 92 | 1014.8 |
| 20260904121324 | 66 | 58 | 2.0 | 3.0 | 0.00 | 0.33 | 0.33 | 92 | 1014.9 |
| 20260904120820 | 65 | 338 | 1.0 | 2.0 | 0.00 | 0.33 | 0.33 | 92 | 1014.9 |
| 20260904120316 | 65 | 347 | 2.0 | 2.0 | 0.00 | 0.33 | 0.33 | 92 | 1014.9 |
| 20260904115816 | 64 | 82 | 1.0 | 1.0 | 0.00 | 0.33 | 0.33 | 93 | 1014.7 |
| 20260904115312 | 64 | 26 | 3.0 | 3.0 | 0.00 | 0.33 | 0.33 | 94 | 1014.9 |
| 20260904114811 | 63 | 109 | 0.0 | 0.0 | 0.00 | 0.33 | 0.33 | 95 | 1014.9 |
| 20260904114306 | 63 | 107 | 1.0 | 1.0 | 0.00 | 0.33 | 0.33 | 96 | 1014.6 |
| 20260904113801 | 63 | 108 | 0.0 | 0.0 | 0.00 | 0.33 | 0.33 | 97 | 1014.8 |
| 20260904113259 | 62 | 107 | 0.0 | 0.0 | 0.00 | 0.33 | 0.33 | 97 | 1014.6 |
| 20260904112755 | 62 | 108 | 1.0 | 1.0 | 0.00 | 0.33 | 0.33 | 97 | 1014.8 |
| 20260904112250 | 63 | 107 | 1.0 | 1.0 | 0.00 | 0.33 | 0.33 | 97 | 1014.8 |
| 20260904111746 | 63 | 107 | 0.0 | 0.0 | 0.00 | 0.33 | 0.33 | 97 | 1014.7 |
| 20260904111242 | 63 | 109 | 0.0 | 1.0 | 0.00 | 0.33 | 0.33 | 97 | 1014.6 |
| 20260904110737 | 63 | 110 | 0.0 | 0.0 | 0.00 | 0.33 | 0.33 | 96 | 1014.6 |
| 20260904110236 | 63 | 109 | 0.0 | 0.0 | 0.00 | 0.33 | 0.33 | 96 | 1014.6 |
| 20260904105731 | 63 | 83 | 1.0 | 2.0 | 0.00 | 0.33 | 0.33 | 96 | 1014.3 |
| 20260904105226 | 64 | 69 | 0.0 | 0.0 | 0.00 | 0.33 | 0.33 | 96 | 1014.4 |
| 20260904104721 | 64 | 92 | 1.0 | 1.0 | 0.00 | 0.33 | 0.33 | 96 | 1014.5 |
| 20260904104217 | 64 | 165 | 1.0 | 1.0 | 0.00 | 0.33 | 0.33 | 95 | 1014.5 |
| 20260904103714 | 64 | 34 | 3.0 | 3.0 | 0.00 | 0.33 | 0.33 | 95 | 1014.4 |
| 20260904103208 | 64 | 324 | 0.0 | 1.0 | 0.00 | 0.33 | 0.33 | 95 | 1014.5 |
| 20260904102704 | 64 | 332 | 0.0 | 1.0 | 0.00 | 0.33 | 0.33 | 94 | 1014.3 |
| 20260904102159 | 65 | 340 | 2.0 | 2.0 | 0.00 | 0.33 | 0.33 | 95 | 1014.5 |
| 20260904101656 | 65 | 347 | 2.0 | 3.0 | 0.00 | 0.33 | 0.33 | 95 | 1014.3 |
| 20260904101152 | 65 | 29 | 0.0 | 0.0 | 0.00 | 0.33 | 0.33 | 97 | 1014.0 |
| 20260904100647 | 65 | 29 | 0.0 | 1.0 | 0.00 | 0.33 | 0.33 | 97 | 1014.3 |
| 20260904100143 | 66 | 301 | 0.0 | 1.0 | 0.00 | 0.33 | 0.33 | 98 | 1014.1 |
| 20260904095642 | 66 | 331 | 1.0 | 1.0 | 0.00 | 0.33 | 0.33 | 98 | 1014.0 |
| 20260904095137 | 66 | 15 | 0.0 | 0.0 | 0.00 | 0.33 | 0.33 | 99 | 1014.3 |
| 20260904094632 | 66 | 15 | 1.0 | 1.0 | 0.00 | 0.33 | 0.33 | 99 | 1013.9 |
| 20260904094127 | 66 | 15 | 0.0 | 0.0 | 0.00 | 0.33 | 0.33 | 99 | 1014.1 |
| 20260904093625 | 66 | 15 | 0.0 | 1.0 | 0.00 | 0.33 | 0.33 | 99 | 1014.4 |
| 20260904093124 | 66 | 15 | 1.0 | 1.0 | 0.00 | 0.33 | 0.33 | 99 | 1013.9 |
| 20260904092620 | 66 | 15 | 2.0 | 2.0 | 0.00 | 0.33 | 0.33 | 99 | 1013.9 |
| 20260904092116 | 66 | 348 | 2.0 | 2.0 | 0.00 | 0.33 | 0.33 | 99 | 1013.9 |
| 20260904091612 | 66 | 348 | 0.0 | 1.0 | 0.00 | 0.33 | 0.33 | 99 | 1013.9 |
| 20260904091112 | 66 | 348 | 1.0 | 1.0 | 0.00 | 0.33 | 0.33 | 99 | 1013.9 |
| 20260904090607 | 66 | 348 | 0.0 | 1.0 | 0.00 | 0.33 | 0.33 | 99 | 1014.0 |
| 20260904085557 | 66 | 348 | 0.0 | 0.0 | 0.00 | 0.33 | 0.33 | 99 | 1013.7 |
| 20260904085056 | 66 | 348 | 1.0 | 1.0 | 0.00 | 0.33 | 0.33 | 99 | 1013.9 |
| 20260904084552 | 66 | 348 | 1.0 | 2.0 | 0.00 | 0.33 | 0.33 | 99 | 1013.9 |
| 20260904084049 | 66 | 348 | 1.0 | 1.0 | 0.00 | 0.33 | 0.33 | 99 | 1013.8 |
| 20260904083544 | 65 | 348 | 0.0 | 1.0 | 0.00 | 0.33 | 0.33 | 99 | 1013.7 |
| 20260904083040 | 65 | 348 | 0.0 | 1.0 | 0.00 | 0.33 | 0.33 | 99 | 1013.6 |
| 20260904082535 | 65 | 348 | 2.0 | 2.0 | 0.00 | 0.33 | 0.33 | 99 | 1013.6 |
| 20260904082030 | 65 | 349 | 0.0 | 0.0 | 0.00 | 0.33 | 0.33 | 99 | 1013.3 |
| 20260904081526 | 65 | 348 | 1.0 | 1.0 | 0.00 | 0.33 | 0.33 | 99 | 1013.2 |
| 20260904081021 | 65 | 349 | 1.0 | 1.0 | 0.00 | 0.33 | 0.33 | 99 | 1013.4 |
| 20260904080516 | 65 | 349 | 0.0 | 1.0 | 0.00 | 0.33 | 0.33 | 99 | 1013.0 |
| 20260904080013 | 65 | 349 | 0.0 | 0.0 | 0.00 | 0.33 | 0.33 | 99 | 1013.2 |
| 20260904075508 | 65 | 349 | 0.0 | 0.0 | 0.00 | 0.33 | 0.33 | 99 | 1013.1 |
| 20260904075003 | 65 | 349 | 0.0 | 0.0 | 0.00 | 0.33 | 0.33 | 99 | 1013.0 |
| 20260904074457 | 65 | 349 | 0.0 | 1.0 | 0.00 | 0.33 | 0.33 | 99 | 1013.1 |
| 20260904073952 | 65 | 349 | 0.0 | 0.0 | 0.00 | 0.33 | 0.33 | 99 | 1012.9 |
| 20260904073447 | 65 | 349 | 0.0 | 0.0 | 0.00 | 0.33 | 0.33 | 99 | 1013.1 |
| 20260904072943 | 65 | 348 | 1.0 | 1.0 | 0.00 | 0.33 | 0.33 | 99 | 1013.1 |
| 20260904072438 | 66 | 349 | 0.0 | 0.0 | 0.00 | 0.33 | 0.33 | 99 | 1013.0 |
| 20260904071933 | 65 | 348 | 0.0 | 0.0 | 0.00 | 0.33 | 0.33 | 99 | 1012.8 |
| 20260904071429 | 65 | 348 | 1.0 | 2.0 | 0.00 | 0.33 | 0.33 | 99 | 1013.0 |
| 20260904070923 | 65 | 350 | 1.0 | 1.0 | 0.00 | 0.33 | 0.33 | 99 | 1012.7 |
| 20260904070422 | 65 | 350 | 0.0 | 0.0 | 0.00 | 0.33 | 0.33 | 98 | 1012.8 |
| 20260904065916 | 65 | 350 | 0.0 | 0.0 | 0.00 | 0.33 | 0.33 | 98 | 1012.8 |
| 20260904065412 | 66 | 350 | 0.0 | 0.0 | 0.00 | 0.33 | 0.33 | 98 | 1012.9 |
| 20260904064912 | 66 | 350 | 0.0 | 0.0 | 0.00 | 0.33 | 0.33 | 98 | 1012.8 |
| 20260904064408 | 66 | 41 | 1.0 | 1.0 | 0.00 | 0.33 | 0.33 | 98 | 1012.7 |
| 20260904063904 | 66 | 18 | 2.0 | 2.0 | 0.00 | 0.33 | 0.33 | 99 | 1013.0 |
| 20260904063400 | 66 | 15 | 3.0 | 3.0 | 0.00 | 0.33 | 0.33 | 99 | 1012.9 |
| 20260904062855 | 66 | 54 | 1.0 | 2.0 | 0.00 | 0.33 | 0.33 | 99 | 1013.1 |
| 20260904062351 | 66 | 55 | 1.0 | 1.0 | 0.00 | 0.33 | 0.33 | 99 | 1013.1 |
| 20260904061847 | 66 | 61 | 2.0 | 2.0 | 0.00 | 0.33 | 0.33 | 99 | 1013.0 |
| 20260904061344 | 67 | 23 | 2.0 | 3.0 | 0.00 | 0.33 | 0.33 | 99 | 1013.0 |
| 20260904060839 | 67 | 359 | 1.0 | 2.0 | 0.00 | 0.33 | 0.33 | 99 | 1013.2 |
| 20260904060335 | 67 | 29 | 1.0 | 2.0 | 0.00 | 0.33 | 0.33 | 99 | 1013.4 |
| 20260904055830 | 67 | 54 | 1.0 | 2.0 | 0.00 | 0.33 | 0.33 | 99 | 1013.2 |
| 20260904055325 | 67 | 60 | 0.0 | 0.0 | 0.00 | 0.33 | 0.33 | 99 | 1013.4 |
| 20260904054821 | 67 | 60 | 0.0 | 1.0 | 0.00 | 0.33 | 0.33 | 99 | 1013.4 |
| 20260904054317 | 67 | 60 | 1.0 | 2.0 | 0.00 | 0.33 | 0.33 | 99 | 1013.3 |
| 20260904053812 | 67 | 62 | 1.0 | 1.0 | 0.00 | 0.33 | 0.33 | 99 | 1013.4 |
| 20260904053311 | 67 | 73 | 0.0 | 0.0 | 0.00 | 0.33 | 0.33 | 99 | 1013.7 |
| 20260904052807 | 67 | 73 | 0.0 | 0.0 | 0.00 | 0.33 | 0.33 | 99 | 1013.6 |
| 20260904052306 | 67 | 73 | 0.0 | 0.0 | 0.00 | 0.33 | 0.33 | 99 | 1013.7 |
| 20260904051759 | 67 | 73 | 0.0 | 0.0 | 0.00 | 0.33 | 0.33 | 99 | 1013.7 |
| 20260904051255 | 67 | 73 | 0.0 | 0.0 | 0.00 | 0.33 | 0.33 | 99 | 1013.5 |
| 20260904050750 | 68 | 73 | 0.0 | 1.0 | 0.00 | 0.33 | 0.33 | 99 | 1013.6 |
| 20260904050246 | 68 | 73 | 0.0 | 0.0 | 0.00 | 0.33 | 0.33 | 99 | 1013.4 |
| 20260904045741 | 68 | 72 | 0.0 | 0.0 | 0.00 | 0.33 | 0.33 | 99 | 1013.7 |
| 20260904045236 | 68 | 73 | 0.0 | 0.0 | 0.07 | 0.33 | 0.33 | 99 | 1013.7 |
| 20260904044730 | 68 | 97 | 0.0 | 0.0 | 0.07 | 0.33 | 0.33 | 99 | 1013.5 |
| 20260904044227 | 68 | 31 | 1.0 | 1.0 | 0.19 | 0.33 | 0.33 | 99 | 1014.0 |
| 20260904043723 | 68 | 20 | 2.0 | 2.0 | 0.24 | 0.32 | 0.32 | 99 | 1014.0 |
| 20260904043219 | 68 | 52 | 3.0 | 3.0 | 0.42 | 0.30 | 0.30 | 99 | 1013.9 |
| 20260904042715 | 68 | 12 | 3.0 | 3.0 | 0.97 | 0.28 | 0.28 | 99 | 1014.0 |
| 20260904042211 | 69 | 34 | 2.0 | 2.0 | 0.94 | 0.23 | 0.23 | 99 | 1013.9 |
| 20260904041710 | 69 | 292 | 4.0 | 4.0 | 0.42 | 0.13 | 0.13 | 99 | 1014.6 |
| 20260904041207 | 69 | 170 | 1.0 | 2.0 | 0.38 | 0.07 | 0.07 | 99 | 1014.1 |
| 20260904040702 | 69 | 34 | 1.0 | 1.0 | 0.66 | 0.06 | 0.06 | 99 | 1013.9 |
| 20260904040158 | 69 | 270 | 2.0 | 2.0 | 0.61 | 0.00 | 0.00 | 99 | 1014.1 |
| 20260904035653 | 69 | 196 | 1.0 | 2.0 | 0.31 | 0.26 | 0.26 | 99 | 1014.1 |
| 20260904035149 | 69 | 77 | 0.0 | 0.0 | 0.35 | 0.23 | 0.23 | 99 | 1013.6 |
| 20260904034647 | 69 | 77 | 1.0 | 1.0 | 0.17 | 0.20 | 0.20 | 99 | 1013.9 |
| 20260904034143 | 69 | 77 | 0.0 | 0.0 | 0.00 | 0.17 | 0.17 | 99 | 1013.4 |
| 20260904033639 | 69 | 77 | 0.0 | 0.0 | 0.00 | 0.17 | 0.17 | 99 | 1013.3 |
| 20260904033136 | 69 | 77 | 0.0 | 0.0 | 0.00 | 0.17 | 0.17 | 99 | 1013.5 |
| 20260904032632 | 69 | 77 | 1.0 | 1.0 | 0.00 | 0.17 | 0.17 | 99 | 1013.5 |
| 20260904032131 | 69 | 77 | 0.0 | 0.0 | 0.00 | 0.17 | 0.17 | 99 | 1013.5 |
| 20260904031630 | 69 | 77 | 0.0 | 0.0 | 0.00 | 0.17 | 0.17 | 99 | 1013.4 |
| 20260904031126 | 69 | 77 | 0.0 | 0.0 | 0.00 | 0.17 | 0.17 | 99 | 1013.4 |
| 20260904030622 | 69 | 77 | 0.0 | 1.0 | 0.00 | 0.17 | 0.17 | 99 | 1013.7 |
| 20260904030117 | 69 | 77 | 0.0 | 0.0 | 0.00 | 0.17 | 0.17 | 99 | 1013.6 |
| 20260904025613 | 69 | 77 | 0.0 | 0.0 | 0.00 | 0.17 | 0.17 | 99 | 1013.5 |
| 20260904025112 | 69 | 77 | 0.0 | 1.0 | 0.00 | 0.17 | 0.17 | 99 | 1013.6 |
| 20260904024608 | 69 | 77 | 0.0 | 0.0 | 0.00 | 0.17 | 0.17 | 99 | 1013.6 |
| 20260904024104 | 69 | 77 | 0.0 | 0.0 | 0.00 | 0.17 | 0.17 | 99 | 1013.4 |
| 20260904023559 | 69 | 77 | 0.0 | 1.0 | 0.00 | 0.17 | 0.17 | 99 | 1013.5 |
| 20260904023056 | 69 | 77 | 0.0 | 0.0 | 0.00 | 0.17 | 0.17 | 99 | 1013.7 |
| 20260904022555 | 69 | 77 | 0.0 | 1.0 | 0.00 | 0.17 | 0.17 | 99 | 1013.4 |
| 20260904022053 | 69 | 77 | 0.0 | 0.0 | 0.00 | 0.17 | 0.17 | 99 | 1013.7 |
| 20260904021548 | 69 | 77 | 0.0 | 0.0 | 0.00 | 0.17 | 0.17 | 99 | 1013.7 |
| 20260904021043 | 69 | 76 | 1.0 | 2.0 | 0.00 | 0.17 | 0.17 | 99 | 1013.8 |
| 20260904020538 | 69 | 80 | 1.0 | 1.0 | 0.00 | 0.17 | 0.17 | 99 | 1013.8 |
| 20260904020033 | 69 | 80 | 1.0 | 1.0 | 0.00 | 0.17 | 0.17 | 99 | 1013.9 |
| 20260904015527 | 69 | 81 | 1.0 | 1.0 | 0.00 | 0.17 | 0.17 | 99 | 1014.1 |
| 20260904015027 | 69 | 81 | 0.0 | 0.0 | 0.00 | 0.17 | 0.17 | 99 | 1014.0 |
| 20260904014526 | 69 | 81 | 0.0 | 0.0 | 0.00 | 0.17 | 0.17 | 99 | 1014.0 |
| 20260904014022 | 69 | 81 | 0.0 | 1.0 | 0.00 | 0.17 | 0.17 | 99 | 1014.0 |
| 20260904013518 | 69 | 81 | 0.0 | 0.0 | 0.00 | 0.17 | 0.17 | 99 | 1014.3 |
| 20260904013015 | 69 | 81 | 0.0 | 0.0 | 0.00 | 0.17 | 0.17 | 99 | 1014.0 |
| 20260904012515 | 69 | 81 | 0.0 | 0.0 | 0.00 | 0.17 | 0.17 | 99 | 1014.1 |
| 20260904012014 | 69 | 81 | 0.0 | 0.0 | 0.00 | 0.17 | 0.17 | 99 | 1014.0 |
| 20260904011508 | 69 | 81 | 0.0 | 0.0 | 0.00 | 0.17 | 0.17 | 98 | 1014.3 |
| 20260904011004 | 69 | 81 | 0.0 | 0.0 | 0.00 | 0.17 | 0.17 | 98 | 1014.3 |
| 20260904010500 | 69 | 81 | 0.0 | 1.0 | 0.00 | 0.17 | 0.17 | 98 | 1014.1 |
| 20260904005955 | 69 | 81 | 0.0 | 0.0 | 0.00 | 0.17 | 0.17 | 98 | 1014.3 |
| 20260904005451 | 69 | 81 | 0.0 | 0.0 | 0.00 | 0.17 | 0.17 | 98 | 1014.3 |
| 20260904004950 | 69 | 81 | 1.0 | 1.0 | 0.00 | 0.17 | 0.17 | 98 | 1014.1 |
| 20260904004447 | 69 | 81 | 0.0 | 0.0 | 0.00 | 0.17 | 0.17 | 98 | 1013.9 |
| 20260904003947 | 69 | 81 | 1.0 | 1.0 | 0.00 | 0.17 | 0.17 | 98 | 1014.0 |
| 20260904003443 | 69 | 81 | 0.0 | 0.0 | 0.00 | 0.17 | 0.17 | 97 | 1014.0 |
| 20260904002938 | 69 | 81 | 0.0 | 0.0 | 0.00 | 0.17 | 0.17 | 97 | 1013.9 |
| 20260904002435 | 70 | 81 | 0.0 | 0.0 | 0.00 | 0.17 | 0.17 | 97 | 1013.8 |
| 20260904001933 | 70 | 81 | 0.0 | 0.0 | 0.00 | 0.17 | 0.17 | 97 | 1013.9 |
| 20260904001430 | 69 | 60 | 3.0 | 6.0 | 0.00 | 0.17 | 0.17 | 98 | 1013.8 |
| 20260904000929 | 69 | 97 | 0.0 | 0.0 | 0.00 | 0.17 | 0.17 | 97 | 1013.5 |
| 20260904000429 | 69 | 97 | 0.0 | 0.0 | 0.00 | 0.17 | 0.17 | 97 | 1013.6 |
| 20260903235924 | 69 | 96 | 1.0 | 1.0 | 0.00 | 0.17 | 0.17 | 97 | 1013.6 |
| 20260903235420 | 69 | 97 | 0.0 | 0.0 | 0.00 | 0.17 | 0.17 | 97 | 1013.5 |
| 20260903234919 | 69 | 97 | 0.0 | 1.0 | 0.00 | 0.17 | 0.17 | 96 | 1013.7 |
| 20260903234415 | 70 | 97 | 2.0 | 2.0 | 0.00 | 0.17 | 0.17 | 96 | 1013.5 |
| 20260903233912 | 70 | 96 | 0.0 | 0.0 | 0.00 | 0.17 | 0.17 | 95 | 1013.7 |
| 20260903233408 | 71 | 97 | 0.0 | 1.0 | 0.00 | 0.17 | 0.17 | 95 | 1013.8 |
| 20260903232907 | 71 | 97 | 0.0 | 0.0 | 0.00 | 0.17 | 0.17 | 94 | 1013.7 |
| 20260903232403 | 71 | 96 | 1.0 | 1.0 | 0.00 | 0.17 | 0.17 | 93 | 1013.7 |
| 20260903231902 | 72 | 35 | 1.0 | 1.0 | 0.00 | 0.17 | 0.17 | 92 | 1013.8 |
| 20260903231357 | 72 | 34 | 1.0 | 1.0 | 0.00 | 0.17 | 0.17 | 92 | 1013.9 |
| 20260903230852 | 72 | 34 | 1.0 | 1.0 | 0.00 | 0.17 | 0.17 | 92 | 1013.8 |
| 20260903230347 | 73 | 34 | 0.0 | 0.0 | 0.00 | 0.17 | 0.17 | 92 | 1013.8 |
| 20260903225844 | 73 | 34 | 0.0 | 1.0 | 0.00 | 0.17 | 0.17 | 91 | 1013.9 |
| 20260903225339 | 73 | 34 | 0.0 | 1.0 | 0.00 | 0.17 | 0.17 | 90 | 1013.6 |
| 20260903224836 | 74 | 33 | 1.0 | 1.0 | 0.00 | 0.17 | 0.17 | 88 | 1013.8 |
| 20260903224331 | 74 | 33 | 0.0 | 0.0 | 0.00 | 0.17 | 0.17 | 88 | 1013.5 |
| 20260903223827 | 75 | 33 | 0.0 | 1.0 | 0.00 | 0.17 | 0.17 | 87 | 1013.6 |
| 20260903223325 | 75 | 357 | 0.0 | 0.0 | 0.00 | 0.17 | 0.17 | 85 | 1013.7 |
| 20260903222821 | 77 | 27 | 10.0 | 14.0 | 0.00 | 0.17 | 0.17 | 80 | 1013.6 |
| 20260903222320 | 78 | 149 | 0.0 | 0.0 | 0.00 | 0.17 | 0.17 | 81 | 1013.1 |
| 20260903221815 | 78 | 151 | 0.0 | 0.0 | 0.00 | 0.17 | 0.17 | 80 | 1013.2 |
| 20260903221314 | 79 | 92 | 1.0 | 1.0 | 0.00 | 0.17 | 0.17 | 79 | 1013.4 |
| 20260903220812 | 79 | 320 | 0.0 | 0.0 | 0.00 | 0.17 | 0.17 | 77 | 1013.1 |
| 20260903220307 | 80 | 131 | 0.0 | 1.0 | 0.00 | 0.17 | 0.17 | 75 | 1013.1 |
| 20260903215804 | 80 | 111 | 1.0 | 1.0 | 0.00 | 0.17 | 0.17 | 77 | 1013.3 |
| 20260903215301 | 80 | 137 | 0.0 | 1.0 | 0.00 | 0.17 | 0.17 | 77 | 1013.2 |
| 20260903214759 | 79 | 154 | 0.0 | 0.0 | 0.00 | 0.17 | 0.17 | 76 | 1013.2 |
| 20260903214255 | 80 | 236 | 1.0 | 2.0 | 0.00 | 0.17 | 0.17 | 76 | 1013.1 |
| 20260903213749 | 80 | 330 | 2.0 | 2.0 | 0.00 | 0.17 | 0.17 | 77 | 1013.3 |
| 20260903213246 | 80 | 345 | 1.0 | 1.0 | 0.00 | 0.17 | 0.17 | 74 | 1013.3 |
| 20260903212741 | 79 | 22 | 2.0 | 2.0 | 0.00 | 0.17 | 0.17 | 75 | 1013.3 |
| 20260903212238 | 79 | 265 | 4.0 | 4.0 | 0.00 | 0.17 | 0.17 | 77 | 1013.3 |
| 20260903211737 | 79 | 341 | 3.0 | 3.0 | 0.00 | 0.17 | 0.17 | 78 | 1013.3 |
| 20260903211234 | 79 | 38 | 1.0 | 1.0 | 0.00 | 0.17 | 0.17 | 78 | 1013.3 |
| 20260903210729 | 78 | 69 | 0.0 | 1.0 | 0.00 | 0.17 | 0.17 | 79 | 1013.4 |
| 20260903210225 | 78 | 91 | 1.0 | 2.0 | 0.00 | 0.17 | 0.17 | 79 | 1013.4 |
| 20260903205724 | 79 | 6 | 1.0 | 1.0 | 0.00 | 0.17 | 0.17 | 77 | 1013.5 |
| 20260903205223 | 79 | 6 | 0.0 | 0.0 | 0.00 | 0.17 | 0.17 | 78 | 1013.3 |
| 20260903204719 | 79 | 26 | 2.0 | 2.0 | 0.00 | 0.17 | 0.17 | 77 | 1013.5 |
| 20260903204215 | 79 | 27 | 0.0 | 0.0 | 0.00 | 0.17 | 0.17 | 79 | 1013.6 |
| 20260903203710 | 78 | 240 | 1.0 | 1.0 | 0.00 | 0.17 | 0.17 | 80 | 1013.7 |
| 20260903203206 | 78 | 239 | 0.0 | 0.0 | 0.00 | 0.17 | 0.17 | 78 | 1013.8 |
| 20260903202705 | 78 | 263 | 1.0 | 1.0 | 0.00 | 0.17 | 0.17 | 77 | 1014.0 |
| 20260903202202 | 78 | 282 | 1.0 | 1.0 | 0.00 | 0.17 | 0.17 | 77 | 1013.8 |
| 20260903201701 | 79 | 249 | 2.0 | 2.0 | 0.00 | 0.17 | 0.17 | 76 | 1013.8 |
| 20260903201156 | 79 | 328 | 3.0 | 3.0 | 0.00 | 0.17 | 0.17 | 75 | 1013.5 |
| 20260903200650 | 78 | 226 | 2.0 | 2.0 | 0.00 | 0.17 | 0.17 | 77 | 1013.6 |
| 20260903200146 | 78 | 251 | 2.0 | 3.0 | 0.00 | 0.17 | 0.17 | 78 | 1013.8 |
| 20260903195642 | 78 | 356 | 2.0 | 3.0 | 0.00 | 0.17 | 0.17 | 77 | 1013.6 |
| 20260903195137 | 78 | 288 | 1.0 | 1.0 | 0.00 | 0.17 | 0.17 | 77 | 1013.6 |
| 20260903194637 | 78 | 320 | 2.0 | 2.0 | 0.00 | 0.17 | 0.17 | 77 | 1013.7 |
| 20260903194137 | 78 | 356 | 1.0 | 2.0 | 0.00 | 0.17 | 0.17 | 78 | 1013.6 |
| 20260903193633 | 78 | 329 | 1.0 | 2.0 | 0.00 | 0.17 | 0.17 | 76 | 1013.5 |
| 20260903193128 | 79 | 289 | 2.0 | 2.0 | 0.00 | 0.17 | 0.17 | 74 | 1013.6 |
| 20260903192625 | 79 | 283 | 2.0 | 2.0 | 0.00 | 0.17 | 0.17 | 72 | 1013.8 |
| 20260903192120 | 80 | 349 | 3.0 | 3.0 | 0.00 | 0.17 | 0.17 | 72 | 1013.8 |
| 20260903191616 | 81 | 319 | 5.0 | 6.0 | 0.00 | 0.17 | 0.17 | 69 | 1013.6 |
| 20260903191110 | 81 | 342 | 3.0 | 3.0 | 0.00 | 0.17 | 0.17 | 74 | 1013.9 |
| 20260903190605 | 80 | 358 | 0.0 | 0.0 | 0.00 | 0.17 | 0.17 | 75 | 1014.1 |
| 20260903190104 | 79 | 320 | 2.0 | 2.0 | 0.00 | 0.17 | 0.17 | 77 | 1014.3 |
| 20260903185600 | 78 | 259 | 1.0 | 1.0 | 0.00 | 0.17 | 0.17 | 76 | 1014.1 |
| 20260903185055 | 79 | 321 | 2.0 | 2.0 | 0.00 | 0.17 | 0.17 | 77 | 1014.3 |
| 20260903184551 | 79 | 329 | 4.0 | 4.0 | 0.00 | 0.17 | 0.17 | 76 | 1014.3 |
| 20260903184046 | 79 | 94 | 0.0 | 1.0 | 0.00 | 0.17 | 0.17 | 77 | 1013.9 |
| 20260903183545 | 79 | 25 | 2.0 | 2.0 | 0.00 | 0.17 | 0.17 | 73 | 1014.3 |
| 20260903183041 | 79 | 4 | 2.0 | 2.0 | 0.00 | 0.17 | 0.17 | 74 | 1014.1 |
| 20260903182539 | 78 | 30 | 2.0 | 2.0 | 0.00 | 0.17 | 0.17 | 77 | 1014.6 |
| 20260903182036 | 78 | 317 | 2.0 | 2.0 | 0.00 | 0.17 | 0.17 | 76 | 1014.5 |
| 20260903181534 | 78 | 298 | 3.0 | 3.0 | 0.00 | 0.17 | 0.17 | 75 | 1014.5 |
| 20260903181034 | 78 | 279 | 3.0 | 3.0 | 0.00 | 0.17 | 0.17 | 75 | 1014.5 |
| 20260903180529 | 79 | 332 | 4.0 | 6.0 | 0.00 | 0.17 | 0.17 | 73 | 1014.6 |
| 20260903180029 | 79 | 344 | 4.0 | 6.0 | 0.00 | 0.17 | 0.17 | 74 | 1014.4 |
| 20260903175527 | 79 | 286 | 5.0 | 6.0 | 0.00 | 0.17 | 0.17 | 73 | 1014.6 |
| 20260903175027 | 81 | 7 | 5.0 | 7.0 | 0.00 | 0.17 | 0.17 | 71 | 1014.7 |
| 20260903174522 | 81 | 132 | 2.0 | 3.0 | 0.00 | 0.17 | 0.17 | 70 | 1014.3 |